User: anonymous   Login
Location: Irma
(52.9170°N, 111.2330°W)
Time: 07:12:29
(UTC-06:00)
Language:

Cosmos 2279 Rocket - Orbit

View from above orbital plane
View from above orbital plane
View from above satellite
View from above satellite

Ground track
Ground track

The orbit data is extracted from the following two-line orbital elements,

1 23093U 94024B   15142.09818796  .00000157  00000-0  14192-3 0  9990
2 23093 082.9454 317.5327 0009355 333.3763 026.6913 13.77664209527184
Epoch (UTC): 22 May 2015 02:21:23
Eccentricity: 0.0009355
inclination: 82.9454°
perigee height: 965 km
apogee height: 979 km
right ascension of ascending node: 317.5327°
argument of perigee: 333.3763°
revolutions per day: 13.77664209
mean anomaly at epoch: 26.6913°
orbit number at epoch: 52718

The dashed part of the orbit path shows where the satellite is in the earth's shadow,  

DLR